TimeEST,TemperatureF,Dew PointF,Humidity,Sea Level PressureIn,VisibilityMPH,Wind Direction,Wind SpeedMPH,Gust SpeedMPH,PrecipitationIn,Events,Conditions,WindDirDegrees,DateUTC
12:15 AM,68.2,61.7,80,30.14,10.0,South,9.2,-,N/A,,Mostly Cloudy,170,2012-11-13 05:15:00
12:35 AM,68.2,61.7,80,30.13,10.0,SSE,8.1,-,N/A,,Overcast,160,2012-11-13 05:35:00
12:55 AM,68.0,61.3,79,30.13,10.0,SSE,5.8,-,N/A,,Overcast,160,2012-11-13 05:55:00
1:15 AM,68.0,61.5,80,30.13,10.0,South,4.6,-,N/A,,Overcast,170,2012-11-13 06:15:00
1:35 AM,68.0,61.5,80,30.15,10.0,North,5.8,-,N/A,,Overcast,350,2012-11-13 06:35:00
1:55 AM,56.3,50.9,82,30.17,10.0,North,12.7,25.3,N/A,Rain,Rain,350,2012-11-13 06:55:00
2:15 AM,53.1,50.5,91,30.18,5.0,North,16.1,26.5,0.03,Rain,Heavy Rain,350,2012-11-13 07:15:00
2:35 AM,51.3,49.8,95,30.22,3.0,NNW,15.0,27.6,0.13,Rain,Rain,340,2012-11-13 07:35:00
2:55 AM,50.4,49.1,95,30.21,7.0,North,10.4,24.2,0.18,Rain,Heavy Rain,350,2012-11-13 07:55:00
3:15 AM,50.2,49.1,96,30.22,10.0,North,9.2,23.0,N/A,Rain,Rain,10,2012-11-13 08:15:00
3:35 AM,49.8,48.4,95,30.23,10.0,North,11.5,18.4,0.01,Rain,Light Rain,350,2012-11-13 08:35:00
3:55 AM,49.3,48.2,96,30.23,7.0,NNE,6.9,-,0.02,Rain,Rain,20,2012-11-13 08:55:00
4:15 AM,49.1,48.2,97,30.25,7.0,North,6.9,-,0.01,Rain,Rain,360,2012-11-13 09:15:00
4:35 AM,48.6,47.7,97,30.26,7.0,North,5.8,-,0.01,Rain,Rain,350,2012-11-13 09:35:00
4:55 AM,48.2,47.3,97,30.27,5.0,North,9.2,-,0.02,,Heavy Drizzle,350,2012-11-13 09:55:00
5:15 AM,48.0,47.3,97,30.27,5.0,NNE,8.1,-,0.01,,Heavy Drizzle,20,2012-11-13 10:15:00
5:35 AM,47.1,46.4,97,30.28,5.0,North,10.4,-,0.01,,Drizzle,360,2012-11-13 10:35:00
5:55 AM,46.4,45.1,95,30.29,7.0,North,11.5,17.3,0.02,Rain,Rain,350,2012-11-13 10:55:00
6:15 AM,46.4,45.3,96,30.30,7.0,North,6.9,-,N/A,Rain,Rain,350,2012-11-13 11:15:00
6:35 AM,46.4,45.3,96,30.31,10.0,North,11.5,-,0.01,Rain,Light Rain,360,2012-11-13 11:35:00
6:55 AM,46.0,44.1,93,30.32,10.0,North,9.2,18.4,0.01,Rain,Light Rain,360,2012-11-13 11:55:00
7:15 AM,46.0,44.6,95,30.33,10.0,North,6.9,-,N/A,,Overcast,360,2012-11-13 12:15:00
7:35 AM,45.9,44.2,94,30.34,10.0,NNE,6.9,-,N/A,,Overcast,20,2012-11-13 12:35:00
7:55 AM,45.5,44.2,95,30.36,5.0,North,4.6,-,N/A,Rain,Rain,360,2012-11-13 12:55:00
8:15 AM,44.6,43.5,96,30.38,5.0,North,9.2,18.4,0.01,Rain,Rain,360,2012-11-13 13:15:00
8:35 AM,44.2,43.3,97,30.39,5.0,North,9.2,-,0.01,Rain,Rain,360,2012-11-13 13:35:00
8:55 AM,44.2,43.3,97,30.39,5.0,North,8.1,-,0.03,Rain,Rain,10,2012-11-13 13:55:00
9:15 AM,43.9,43.0,97,30.40,1.8,North,5.8,-,0.04,Rain,Light Rain,360,2012-11-13 14:15:00
9:35 AM,44.2,43.0,95,30.40,7.0,North,6.9,-,0.05,Rain,Rain,10,2012-11-13 14:35:00
9:55 AM,44.6,42.8,93,30.40,10.0,North,6.9,-,0.06,Rain,Light Rain,10,2012-11-13 14:55:00
10:15 AM,44.6,42.3,91,30.42,10.0,NNE,10.4,-,N/A,,Light Drizzle,20,2012-11-13 15:15:00
10:35 AM,44.6,41.4,88,30.41,10.0,North,6.9,-,N/A,,Mostly Cloudy,360,2012-11-13 15:35:00
10:55 AM,45.1,41.4,87,30.40,10.0,NNE,6.9,-,N/A,,Mostly Cloudy,20,2012-11-13 15:55:00
11:15 AM,45.9,41.4,84,30.40,10.0,North,6.9,-,N/A,,Mostly Cloudy,350,2012-11-13 16:15:00
11:35 AM,45.9,39.2,78,30.39,10.0,North,9.2,-,N/A,,Mostly Cloudy,360,2012-11-13 16:35:00
11:55 AM,46.4,39.2,76,30.38,10.0,North,6.9,-,N/A,,Scattered Clouds,10,2012-11-13 16:55:00
12:15 PM,47.5,38.8,72,30.38,10.0,NNE,8.1,-,N/A,,Mostly Cloudy,20,2012-11-13 17:15:00
12:35 PM,47.8,36.9,66,30.37,10.0,NNW,6.9,-,N/A,,Scattered Clouds,340,2012-11-13 17:35:00
12:55 PM,49.5,35.6,59,30.36,10.0,NNW,10.4,17.3,N/A,,Clear,340,2012-11-13 17:55:00
1:15 PM,50.5,35.8,57,30.35,10.0,NNW,6.9,-,N/A,,Clear,330,2012-11-13 18:15:00
1:55 PM,51.4,32.2,48,30.35,10.0,North,11.5,18.4,N/A,,Clear,350,2012-11-13 18:55:00
2:15 PM,52.3,32.7,47,30.35,10.0,North,11.5,16.1,N/A,,Clear,350,2012-11-13 19:15:00
2:35 PM,52.0,32.2,47,30.34,10.0,North,9.2,-,N/A,,Clear,350,2012-11-13 19:35:00
2:55 PM,52.2,31.5,45,30.34,10.0,NNW,8.1,-,N/A,,Clear,340,2012-11-13 19:55:00
3:15 PM,52.0,31.6,46,30.35,10.0,NW,6.9,-,N/A,,Clear,320,2012-11-13 20:15:00
3:35 PM,51.8,30.9,45,30.36,10.0,NNW,9.2,17.3,N/A,,Clear,340,2012-11-13 20:35:00
3:55 PM,51.6,30.7,45,30.36,10.0,NNW,9.2,-,N/A,,Clear,340,2012-11-13 20:55:00
4:15 PM,50.9,30.6,46,30.37,10.0,North,6.9,-,N/A,,Clear,360,2012-11-13 21:15:00
4:35 PM,50.2,30.4,47,30.36,10.0,NNW,8.1,-,N/A,,Clear,340,2012-11-13 21:35:00
4:55 PM,49.1,30.7,49,30.37,10.0,NNW,5.8,-,N/A,,Clear,330,2012-11-13 21:55:00
5:15 PM,48.2,30.9,51,30.38,10.0,NNW,3.5,-,N/A,,Clear,340,2012-11-13 22:15:00
5:35 PM,47.3,31.1,53,30.40,10.0,Calm,Calm,-,N/A,,Clear,0,2012-11-13 22:35:00
5:55 PM,46.0,31.5,57,30.40,10.0,NNW,3.5,-,N/A,,Clear,330,2012-11-13 22:55:00
6:15 PM,45.1,31.8,60,30.42,10.0,NNW,4.6,-,N/A,,Clear,340,2012-11-13 23:15:00
6:35 PM,44.6,31.8,61,30.42,10.0,North,3.5,-,N/A,,Clear,350,2012-11-13 23:35:00
6:55 PM,44.6,32.0,61,30.43,10.0,North,3.5,-,N/A,,Clear,350,2012-11-13 23:55:00
7:15 PM,43.3,32.0,64,30.44,10.0,North,5.8,-,N/A,,Clear,350,2012-11-14 00:15:00
7:35 PM,44.1,31.1,60,30.44,10.0,North,6.9,-,N/A,,Clear,350,2012-11-14 00:35:00
7:55 PM,43.9,30.2,59,30.45,10.0,North,9.2,-,N/A,,Clear,350,2012-11-14 00:55:00
8:15 PM,43.3,30.0,59,30.46,10.0,North,8.1,-,N/A,,Clear,350,2012-11-14 01:15:00
8:35 PM,42.8,29.8,60,30.46,10.0,NNW,4.6,-,N/A,,Clear,340,2012-11-14 01:35:00
8:55 PM,42.1,30.0,62,30.47,10.0,NNW,5.8,-,N/A,,Clear,340,2012-11-14 01:55:00
9:15 PM,42.1,29.3,61,30.47,10.0,NNW,6.9,-,N/A,,Clear,340,2012-11-14 02:15:00
9:35 PM,41.9,29.3,61,30.47,10.0,North,6.9,-,N/A,,Clear,350,2012-11-14 02:35:00
9:55 PM,41.2,29.1,62,30.48,10.0,NNW,5.8,-,N/A,,Clear,340,2012-11-14 02:55:00
10:15 PM,41.0,28.8,62,30.48,10.0,North,6.9,-,N/A,,Clear,350,2012-11-14 03:15:00
10:35 PM,40.5,28.8,63,30.48,10.0,NNW,6.9,-,N/A,,Clear,340,2012-11-14 03:35:00
10:55 PM,40.1,28.4,63,30.48,10.0,NNW,5.8,-,N/A,,Clear,340,2012-11-14 03:55:00
11:15 PM,39.9,28.4,63,30.48,10.0,North,8.1,-,N/A,,Clear,350,2012-11-14 04:15:00
11:35 PM,39.4,28.4,65,30.49,10.0,NNW,5.8,-,N/A,,Clear,340,2012-11-14 04:35:00
11:55 PM,39.2,28.2,65,30.49,10.0,NNW,6.9,-,N/A,,Clear,340,2012-11-14 04:55:00